Bologna, Italy

10:34 AM CET on February 27, 2017 (GMT +0100)
Borgo Panigale

Weather History for LIPE - September, 2013

Change the Weather History Date:

Friday, September 20, 2013

  Actual Average Record
Temperature  
Mean Temperature 66 °F -  
Max Temperature 78 °F 68 °F 86 °F (2003)
Min Temperature 55 °F 53 °F 48 °F (2001)
Cooling Degree Days 2    
Growing Degree Days 16 (Base 50)    
Moisture  
Dew Point 55 °F    
Average Humidity 69    
Maximum Humidity 88    
Minimum Humidity 39    
Precipitation  
Precipitation 0.00 in - - ()
Sea Level Pressure  
Sea Level Pressure 29.95 in    
Wind  
Wind Speed 3 mph ()    
Max Wind Speed 10 mph    
Max Gust Speed -    
Visibility 6.2 miles    
Events      
Averages and records for this station are not official NWS values.
T = Trace of Precipitation, MM = Missing Value Source: Averaged Metar Reports

Daily Weather History Graph

Daily Weather History Graph

Search for Another Location

Airport or City:

Trip Planner

Search our weather history database for the weather conditions in past years. The results will help you decide how hot, cold, wet, or windy it might be!

Date:

Astronomy

Sep. 20, 2013 Rise Set
Actual Time 6:59 AM CEST 7:16 PM CEST
Civil Twilight 6:30 AM CEST 7:45 PM CEST
Nautical Twilight 5:56 AM CEST 8:19 PM CEST
Astronomical Twilight 5:20 AM CEST 8:54 PM CEST
Moon 7:34 PM CEST (9/20) 8:00 AM CEST (9/20)
Length of Visible Light 13h 14m
Length of Day
12h 16m
Full, 99% of the Moon is Illuminated
Sep 20
Full
Sep 27
Last Quarter
Oct 5
New
Oct 12
First Quarter
Oct 19
Full

Hourly Weather History & Observations

Time (CEST) Temp. Dew Point Humidity Pressure Visibility Wind Dir Wind Speed Gust Speed Precip Events Conditions
12:20 AM 60.8 °F 57.2 °F 88% 29.86 in - Variable 1.2 mph - N/A   Clear
12:50 AM 60.8 °F 55.4 °F 82% 29.86 in - Calm Calm - N/A   Clear
1:20 AM 59.0 °F 55.4 °F 88% 29.86 in - Calm Calm - N/A   Clear
1:50 AM 60.8 °F 53.6 °F 77% 29.89 in - SW 3.5 mph - N/A   Clear
2:20 AM 59.0 °F 53.6 °F 82% 29.89 in - SSW 4.6 mph - N/A   Clear
2:50 AM 59.0 °F 53.6 °F 82% 29.89 in - SW 4.6 mph - N/A   Clear
3:20 AM 57.2 °F 53.6 °F 88% 29.89 in - WSW 3.5 mph - N/A   Clear
3:50 AM 57.2 °F 53.6 °F 88% 29.89 in - WSW 4.6 mph - N/A   Clear
4:20 AM 57.2 °F 53.6 °F 88% 29.92 in - West 3.5 mph - N/A   Clear
4:50 AM 57.2 °F 51.8 °F 82% 29.92 in - SW 3.5 mph - N/A   Clear
5:20 AM 57.2 °F 51.8 °F 82% 29.92 in - SW 4.6 mph - N/A   Clear
5:50 AM 57.2 °F 51.8 °F 82% 29.92 in - SW 4.6 mph - N/A   Clear
6:20 AM 57.2 °F 51.8 °F 82% 29.92 in - SW 3.5 mph - N/A   Clear
6:50 AM 55.4 °F 51.8 °F 88% 29.92 in - SSW 4.6 mph - N/A   Clear
7:20 AM 55.4 °F 51.8 °F 88% 29.95 in - Variable 2.3 mph - N/A   Clear
7:50 AM 57.2 °F 53.6 °F 88% 29.95 in - SW 5.8 mph - N/A   Clear
8:20 AM 59.0 °F 53.6 °F 82% 29.95 in - SW 5.8 mph - N/A   Clear
8:50 AM 60.8 °F 53.6 °F 77% 29.95 in - SW 3.5 mph - N/A   Clear
9:20 AM 62.6 °F 53.6 °F 72% 29.98 in - West 4.6 mph - N/A   Clear
9:50 AM 64.4 °F 53.6 °F 68% 29.98 in - West 4.6 mph - N/A   Clear
10:20 AM 66.2 °F 55.4 °F 68% 29.98 in - NNW 4.6 mph - N/A   Clear
10:50 AM 68.0 °F 57.2 °F 68% 29.98 in - NNW 4.6 mph - N/A   Clear
11:20 AM 69.8 °F 59.0 °F 68% 29.98 in - North 3.5 mph - N/A   Clear
11:50 AM 71.6 °F 59.0 °F 64% 29.98 in - Variable 3.5 mph - N/A   Clear
12:20 PM 73.4 °F 60.8 °F 65% 29.98 in - Variable 3.5 mph - N/A   Clear
12:50 PM 75.2 °F 59.0 °F 57% 29.98 in 6.2 mi Variable 2.3 mph - N/A   Partly Cloudy
1:20 PM 75.2 °F 57.2 °F 53% 29.98 in 6.2 mi ENE 6.9 mph - N/A   Partly Cloudy
2:20 PM 77.0 °F 57.2 °F 50% 29.98 in 6.2 mi ESE 4.6 mph - N/A   Partly Cloudy
2:50 PM 78.8 °F 55.4 °F 44% 29.95 in 6.2 mi Variable 3.5 mph - N/A   Partly Cloudy
3:20 PM 78.8 °F 53.6 °F 42% 29.95 in 6.2 mi Variable 5.8 mph - N/A   Partly Cloudy
3:50 PM 78.8 °F 53.6 °F 42% 29.95 in 6.2 mi North 3.5 mph - N/A   Partly Cloudy
4:20 PM 78.8 °F 55.4 °F 44% 29.95 in 6.2 mi ENE 4.6 mph - N/A   Partly Cloudy
4:50 PM 78.8 °F 53.6 °F 42% 29.95 in 6.2 mi Variable 3.5 mph - N/A   Partly Cloudy
5:20 PM 78.8 °F 51.8 °F 39% 29.95 in 6.2 mi ESE 4.6 mph - N/A   Partly Cloudy
5:50 PM 78.8 °F 53.6 °F 42% 29.95 in 6.2 mi Variable 1.2 mph - N/A   Partly Cloudy
6:20 PM 77.0 °F 53.6 °F 44% 29.95 in - ENE 4.6 mph - N/A   Clear
6:50 PM 75.2 °F 55.4 °F 50% 29.95 in - East 8.1 mph - N/A   Clear
7:20 PM 71.6 °F 57.2 °F 60% 29.95 in - ESE 10.4 mph - N/A   Clear
7:50 PM 71.6 °F 57.2 °F 60% 29.98 in - SE 9.2 mph - N/A   Clear
8:20 PM 68.0 °F 57.2 °F 68% 29.98 in 6.2 mi SE 5.8 mph - N/A   Partly Cloudy
9:20 PM 68.0 °F 57.2 °F 68% 30.01 in - Variable 1.2 mph - N/A   Clear
9:50 PM 66.2 °F 57.2 °F 73% 30.01 in - East 2.3 mph - N/A   Clear
10:20 PM 64.4 °F 57.2 °F 77% 30.01 in 6.2 mi Variable 1.2 mph - N/A   Partly Cloudy
10:50 PM 66.2 °F 55.4 °F 68% 30.01 in 6.2 mi SSW 4.6 mph - N/A   Partly Cloudy
11:20 PM 66.2 °F 57.2 °F 73% 30.01 in 6.2 mi SSW 3.5 mph - N/A   Partly Cloudy
11:50 PM 64.4 °F 57.2 °F 77% 30.04 in - SSW 3.5 mph - N/A   Clear